Time,TemperatureF,DewpointF,PressureIn,WindDirection,WindDirectionDegrees,WindSpeedMPH,WindSpeedGustMPH,Humidity,HourlyPrecipIn,Conditions,Clouds,dailyrainin,SoftwareType,DateUTC
2013-11-23 00:01:00,43.0,42.4,29.80,SW,216,0.0,1.0,98,0.00,,,0.00,meteohub,2013-11-23 05:01:00,
2013-11-23 00:02:00,43.0,42.4,29.80,SW,215,0.0,1.0,98,0.00,,,0.00,meteohub,2013-11-23 05:02:00,
2013-11-23 00:03:00,43.0,42.4,29.80,SW,215,0.0,1.0,98,0.00,,,0.00,meteohub,2013-11-23 05:03:00,
2013-11-23 00:08:00,43.0,42.4,29.80,SW,215,0.0,0.0,98,0.00,,,0.00,meteohub,2013-11-23 05:08:00,
2013-11-23 00:13:00,43.0,42.4,29.80,SW,215,0.0,0.0,98,0.00,,,0.00,meteohub,2013-11-23 05:13:00,
2013-11-23 00:18:00,43.2,42.6,29.80,SW,216,0.0,0.0,98,0.00,,,0.00,meteohub,2013-11-23 05:18:00,
2013-11-23 00:23:00,43.2,42.6,29.79,SW,215,0.0,0.0,98,0.00,,,0.00,meteohub,2013-11-23 05:23:00,
2013-11-23 00:28:00,43.2,42.6,29.79,SW,216,0.0,0.0,98,0.00,,,0.00,meteohub,2013-11-23 05:28:00,
2013-11-23 00:33:00,43.3,42.8,29.79,SW,216,0.0,0.0,98,0.00,,,0.00,meteohub,2013-11-23 05:33:00,
2013-11-23 00:38:00,43.3,42.8,29.79,SW,215,0.0,0.0,98,0.00,,,0.00,meteohub,2013-11-23 05:38:00,
2013-11-23 00:43:00,43.5,43.0,29.80,SW,215,0.0,0.0,98,0.00,,,0.00,meteohub,2013-11-23 05:43:00,
2013-11-23 00:48:00,43.5,43.0,29.79,SW,215,0.0,0.0,98,0.00,,,0.00,meteohub,2013-11-23 05:48:00,
2013-11-23 00:53:00,43.7,43.2,29.79,SW,215,0.0,0.0,98,0.00,,,0.00,meteohub,2013-11-23 05:53:00,
2013-11-23 00:58:00,43.9,43.3,29.78,SW,215,0.0,0.0,98,0.00,,,0.00,meteohub,2013-11-23 05:58:00,
2013-11-23 01:03:00,44.1,43.5,29.78,SW,215,0.0,0.0,98,0.00,,,0.00,meteohub,2013-11-23 06:03:00,
2013-11-23 01:08:00,44.1,43.5,29.78,SW,216,0.0,0.0,98,0.00,,,0.00,meteohub,2013-11-23 06:08:00,
2013-11-23 01:13:00,44.1,43.5,29.78,SW,215,0.0,1.0,98,0.00,,,0.00,meteohub,2013-11-23 06:13:00,
2013-11-23 01:18:00,44.2,43.7,29.78,SW,215,0.0,1.0,98,0.00,,,0.00,meteohub,2013-11-23 06:18:00,
2013-11-23 01:23:00,44.2,43.7,29.78,SW,221,0.0,0.0,98,0.00,,,0.00,meteohub,2013-11-23 06:23:00,
2013-11-23 01:28:00,44.2,43.7,29.79,SW,221,0.0,0.0,98,0.00,,,0.00,meteohub,2013-11-23 06:28:00,
2013-11-23 01:33:00,44.4,43.9,29.79,SW,221,0.0,0.0,98,0.00,,,0.00,meteohub,2013-11-23 06:33:00,
2013-11-23 01:38:00,44.6,44.1,29.79,SW,221,0.0,0.0,98,0.00,,,0.00,meteohub,2013-11-23 06:38:00,
2013-11-23 01:43:00,44.8,44.2,29.79,SW,221,0.0,1.0,98,0.00,,,0.00,meteohub,2013-11-23 06:43:00,
2013-11-23 01:48:00,44.6,44.1,29.79,SW,221,0.0,1.0,98,0.00,,,0.00,meteohub,2013-11-23 06:48:00,
2013-11-23 01:53:00,44.6,44.1,29.78,SW,221,0.0,1.0,98,0.00,,,0.00,meteohub,2013-11-23 06:53:00,
2013-11-23 01:58:00,44.4,43.9,29.78,NNW,332,0.0,1.0,98,0.00,,,0.00,meteohub,2013-11-23 06:58:00,
2013-11-23 02:03:00,44.4,43.7,29.78,NNW,332,0.0,1.0,97,0.00,,,0.00,meteohub,2013-11-23 07:03:00,
2013-11-23 02:08:00,44.4,43.7,29.78,NNW,335,0.0,1.0,97,0.00,,,0.00,meteohub,2013-11-23 07:08:00,
2013-11-23 02:13:00,44.4,43.7,29.78,NNW,334,0.0,0.0,97,0.00,,,0.00,meteohub,2013-11-23 07:13:00,
2013-11-23 02:18:00,44.4,43.7,29.78,NNE,12,0.0,1.0,97,0.00,,,0.00,meteohub,2013-11-23 07:18:00,
2013-11-23 02:23:00,44.4,43.7,29.78,NNE,12,0.0,2.0,97,0.00,,,0.00,meteohub,2013-11-23 07:23:00,
2013-11-23 02:28:00,44.4,43.3,29.78,NNE,12,0.0,2.0,96,0.00,,,0.00,meteohub,2013-11-23 07:28:00,
2013-11-23 02:33:00,44.4,43.2,29.78,North,11,0.0,2.0,95,0.00,,,0.00,meteohub,2013-11-23 07:33:00,
2013-11-23 02:38:00,44.4,42.8,29.78,North,11,0.0,1.0,94,0.00,,,0.00,meteohub,2013-11-23 07:38:00,
2013-11-23 02:43:00,44.4,42.4,29.78,North,11,0.0,1.0,93,0.00,,,0.00,meteohub,2013-11-23 07:43:00,
2013-11-23 02:48:00,44.4,42.3,29.78,North,11,0.0,1.0,92,0.00,,,0.00,meteohub,2013-11-23 07:48:00,
2013-11-23 02:53:00,44.4,41.9,29.78,North,7,0.0,1.0,91,0.00,,,0.00,meteohub,2013-11-23 07:53:00,
2013-11-23 02:58:00,44.4,41.7,29.78,North,8,0.0,2.0,90,0.00,,,0.00,meteohub,2013-11-23 07:58:00,
2013-11-23 03:03:00,44.4,41.4,29.78,North,9,0.0,2.0,89,0.00,,,0.00,meteohub,2013-11-23 08:03:00,
2013-11-23 03:08:00,44.4,41.4,29.78,North,8,0.0,2.0,89,0.00,,,0.00,meteohub,2013-11-23 08:08:00,
2013-11-23 03:13:00,44.4,41.4,29.78,North,9,0.0,1.0,89,0.00,,,0.00,meteohub,2013-11-23 08:13:00,
2013-11-23 03:18:00,44.4,41.4,29.78,North,356,0.0,1.0,89,0.00,,,0.00,meteohub,2013-11-23 08:18:00,
2013-11-23 03:23:00,44.2,41.2,29.78,North,357,0.0,1.0,89,0.00,,,0.00,meteohub,2013-11-23 08:23:00,
2013-11-23 03:28:00,44.1,40.5,29.78,ENE,58,0.0,1.0,87,0.00,,,0.00,meteohub,2013-11-23 08:28:00,
2013-11-23 03:33:00,44.2,40.1,29.78,West,260,0.0,6.0,85,0.00,,,0.00,meteohub,2013-11-23 08:33:00,
2013-11-23 03:38:00,44.4,39.9,29.79,NNW,336,0.0,6.0,84,0.00,,,0.00,meteohub,2013-11-23 08:38:00,
2013-11-23 03:43:00,44.2,39.0,29.79,NNE,33,3.0,6.0,82,0.00,,,0.00,meteohub,2013-11-23 08:43:00,
2013-11-23 03:48:00,44.2,38.8,29.79,WNW,288,0.0,2.0,81,0.00,,,0.00,meteohub,2013-11-23 08:48:00,
2013-11-23 03:53:00,44.2,38.8,29.80,NNE,27,0.0,3.0,81,0.00,,,0.00,meteohub,2013-11-23 08:53:00,
2013-11-23 03:58:00,44.2,38.8,29.80,North,356,1.0,3.0,81,0.00,,,0.00,meteohub,2013-11-23 08:58:00,
2013-11-23 04:03:00,44.2,38.8,29.80,North,354,0.0,3.0,81,0.00,,,0.00,meteohub,2013-11-23 09:03:00,
2013-11-23 04:08:00,44.1,38.3,29.80,North,355,0.0,3.0,80,0.00,,,0.00,meteohub,2013-11-23 09:08:00,
2013-11-23 04:13:00,43.9,38.5,29.80,NNE,13,0.0,3.0,81,0.00,,,0.00,meteohub,2013-11-23 09:13:00,
2013-11-23 04:18:00,43.5,38.1,29.80,North,6,0.0,4.0,81,0.00,,,0.00,meteohub,2013-11-23 09:18:00,
2013-11-23 04:23:00,43.5,38.1,29.80,WNW,286,0.0,4.0,81,0.00,,,0.00,meteohub,2013-11-23 09:23:00,
2013-11-23 04:28:00,43.3,37.6,29.81,South,172,0.0,4.0,80,0.00,,,0.00,meteohub,2013-11-23 09:28:00,
2013-11-23 04:33:00,43.2,37.4,29.81,South,187,0.0,2.0,80,0.00,,,0.00,meteohub,2013-11-23 09:33:00,
2013-11-23 04:38:00,43.0,37.2,29.81,NNW,330,0.0,2.0,80,0.00,,,0.00,meteohub,2013-11-23 09:38:00,
2013-11-23 04:43:00,42.8,37.0,29.81,WSW,251,0.0,2.0,80,0.00,,,0.00,meteohub,2013-11-23 09:43:00,
2013-11-23 04:48:00,42.4,37.0,29.81,NW,319,0.0,1.0,81,0.00,,,0.00,meteohub,2013-11-23 09:48:00,
2013-11-23 04:53:00,42.4,36.3,29.81,SSW,213,0.0,1.0,79,0.00,,,0.00,meteohub,2013-11-23 09:53:00,
2013-11-23 04:58:00,42.3,36.0,29.82,North,7,0.0,2.0,78,0.00,,,0.00,meteohub,2013-11-23 09:58:00,
2013-11-23 05:03:00,42.3,35.6,29.82,SW,229,0.0,2.0,77,0.00,,,0.00,meteohub,2013-11-23 10:03:00,
2013-11-23 05:08:00,42.1,35.4,29.83,NNW,344,0.0,2.0,77,0.00,,,0.00,meteohub,2013-11-23 10:08:00,
2013-11-23 05:13:00,41.9,35.2,29.83,WSW,242,0.0,1.0,77,0.00,,,0.00,meteohub,2013-11-23 10:13:00,
2013-11-23 05:18:00,41.7,35.1,29.83,SW,236,0.0,1.0,77,0.00,,,0.00,meteohub,2013-11-23 10:18:00,
2013-11-23 05:23:00,41.5,34.9,29.83,WSW,257,0.0,1.0,77,0.00,,,0.00,meteohub,2013-11-23 10:23:00,
2013-11-23 05:28:00,41.4,35.1,29.83,SW,221,0.0,1.0,78,0.00,,,0.00,meteohub,2013-11-23 10:28:00,
2013-11-23 05:33:00,41.4,35.1,29.83,SW,221,0.0,1.0,78,0.00,,,0.00,meteohub,2013-11-23 10:33:00,
2013-11-23 05:38:00,41.2,34.5,29.84,WSW,242,0.0,1.0,77,0.00,,,0.00,meteohub,2013-11-23 10:38:00,
2013-11-23 05:43:00,41.2,34.9,29.84,SW,231,1.0,1.0,78,0.00,,,0.00,meteohub,2013-11-23 10:43:00,
2013-11-23 05:48:00,40.8,34.5,29.85,SW,216,2.0,2.0,78,0.00,,,0.00,meteohub,2013-11-23 10:48:00,
2013-11-23 05:53:00,40.8,34.2,29.85,SSW,204,0.0,2.0,77,0.00,,,0.00,meteohub,2013-11-23 10:53:00,
2013-11-23 05:58:00,40.6,34.0,29.85,SSW,210,0.0,2.0,77,0.00,,,0.00,meteohub,2013-11-23 10:58:00,
2013-11-23 06:03:00,40.6,33.6,29.86,SSW,212,0.0,2.0,76,0.00,,,0.00,meteohub,2013-11-23 11:03:00,
2013-11-23 06:08:00,40.5,32.9,29.86,SE,140,0.0,2.0,74,0.00,,,0.00,meteohub,2013-11-23 11:08:00,
2013-11-23 06:13:00,40.5,32.9,29.86,SSW,207,0.0,2.0,74,0.00,,,0.00,meteohub,2013-11-23 11:13:00,
2013-11-23 06:18:00,40.3,32.4,29.86,SW,225,0.0,2.0,73,0.00,,,0.00,meteohub,2013-11-23 11:18:00,
2013-11-23 06:23:00,39.9,31.6,29.86,SW,227,0.0,3.0,72,0.00,,,0.00,meteohub,2013-11-23 11:23:00,
2013-11-23 06:28:00,39.9,31.6,29.86,WSW,239,0.0,3.0,72,0.00,,,0.00,meteohub,2013-11-23 11:28:00,
2013-11-23 06:33:00,39.6,31.3,29.87,WSW,238,0.0,3.0,72,0.00,,,0.00,meteohub,2013-11-23 11:33:00,
2013-11-23 06:38:00,39.4,31.1,29.87,WSW,242,0.0,2.0,72,0.00,,,0.00,meteohub,2013-11-23 11:38:00,
2013-11-23 06:43:00,39.2,30.6,29.87,North,11,0.0,1.0,71,0.00,,,0.00,meteohub,2013-11-23 11:43:00,
2013-11-23 06:48:00,39.0,30.4,29.87,SW,231,0.0,1.0,71,0.00,,,0.00,meteohub,2013-11-23 11:48:00,
2013-11-23 06:53:00,38.8,29.8,29.87,WSW,238,0.0,1.0,70,0.00,,,0.00,meteohub,2013-11-23 11:53:00,
2013-11-23 06:58:00,38.8,30.2,29.87,WSW,250,0.0,1.0,71,0.00,,,0.00,meteohub,2013-11-23 11:58:00,
2013-11-23 07:03:00,38.7,29.7,29.88,SW,236,0.0,1.0,70,0.00,,,0.00,meteohub,2013-11-23 12:03:00,
2013-11-23 07:08:00,38.5,29.5,29.88,SW,229,0.0,1.0,70,0.00,,,0.00,meteohub,2013-11-23 12:08:00,
2013-11-23 07:13:00,38.1,29.1,29.88,West,262,0.0,1.0,70,0.00,,,0.00,meteohub,2013-11-23 12:13:00,
2013-11-23 07:18:00,38.1,28.9,29.88,SSW,198,0.0,1.0,69,0.00,,,0.00,meteohub,2013-11-23 12:18:00,
2013-11-23 07:23:00,38.1,28.9,29.89,NE,47,0.0,1.0,69,0.00,,,0.00,meteohub,2013-11-23 12:23:00,
2013-11-23 07:29:00,38.1,28.6,29.89,WSW,252,0.0,1.0,68,0.00,,,0.00,meteohub,2013-11-23 12:29:00,
2013-11-23 07:34:00,38.1,28.9,29.89,West,264,0.0,1.0,69,0.00,,,0.00,meteohub,2013-11-23 12:34:00,
2013-11-23 07:39:00,38.1,28.9,29.89,SW,218,0.0,1.0,69,0.00,,,0.00,meteohub,2013-11-23 12:39:00,
2013-11-23 07:44:00,38.1,29.1,29.89,WSW,243,0.0,2.0,70,0.00,,,0.00,meteohub,2013-11-23 12:44:00,
2013-11-23 07:49:00,38.1,28.9,29.89,SSE,151,0.0,2.0,69,0.00,,,0.00,meteohub,2013-11-23 12:49:00,
2013-11-23 07:54:00,37.9,28.4,29.90,SW,229,0.0,2.0,68,0.00,,,0.00,meteohub,2013-11-23 12:54:00,
2013-11-23 07:59:00,37.9,28.8,29.90,North,5,0.0,1.0,69,0.00,,,0.00,meteohub,2013-11-23 12:59:00,
2013-11-23 08:04:00,37.9,28.0,29.90,WSW,255,0.0,1.0,67,0.00,,,0.00,meteohub,2013-11-23 13:04:00,
2013-11-23 08:09:00,37.9,28.0,29.91,North,354,1.0,2.0,67,0.00,,,0.00,meteohub,2013-11-23 13:09:00,
2013-11-23 08:14:00,38.1,28.2,29.91,SSE,153,0.0,2.0,67,0.00,,,0.00,meteohub,2013-11-23 13:14:00,
2013-11-23 08:19:00,38.5,28.4,29.91,WSW,258,0.0,2.0,67,0.00,,,0.00,meteohub,2013-11-23 13:19:00,
2013-11-23 08:24:00,38.8,28.8,29.91,West,260,0.0,1.0,67,0.00,,,0.00,meteohub,2013-11-23 13:24:00,
2013-11-23 08:29:00,39.4,28.9,29.91,SW,218,0.0,1.0,66,0.00,,,0.00,meteohub,2013-11-23 13:29:00,
2013-11-23 08:34:00,39.6,29.1,29.91,NE,36,0.0,2.0,66,0.00,,,0.00,meteohub,2013-11-23 13:34:00,
2013-11-23 08:39:00,39.7,28.9,29.92,North,9,0.0,4.0,65,0.00,,,0.00,meteohub,2013-11-23 13:39:00,
2013-11-23 08:44:00,40.3,28.8,29.92,North,11,0.0,4.0,63,0.00,,,0.00,meteohub,2013-11-23 13:44:00,
2013-11-23 08:49:00,40.5,28.9,29.92,SW,225,0.0,4.0,63,0.00,,,0.00,meteohub,2013-11-23 13:49:00,
2013-11-23 08:54:00,40.5,28.9,29.92,SW,225,0.0,3.0,63,0.00,,,0.00,meteohub,2013-11-23 13:54:00,
2013-11-23 08:59:00,40.3,29.1,29.92,WSW,248,0.0,2.0,64,0.00,,,0.00,meteohub,2013-11-23 13:59:00,
2013-11-23 09:04:00,39.9,28.4,29.92,NNW,344,0.0,2.0,63,0.00,,,0.00,meteohub,2013-11-23 14:04:00,
2013-11-23 09:09:00,39.7,28.2,29.92,SW,226,1.0,2.0,63,0.00,,,0.00,meteohub,2013-11-23 14:09:00,
2013-11-23 09:14:00,39.7,28.2,29.92,SW,225,0.0,2.0,63,0.00,,,0.00,meteohub,2013-11-23 14:14:00,
2013-11-23 09:19:00,39.6,27.1,29.92,SW,225,0.0,2.0,61,0.00,,,0.00,meteohub,2013-11-23 14:19:00,
2013-11-23 09:24:00,39.6,27.1,29.93,WSW,238,0.0,2.0,61,0.00,,,0.00,meteohub,2013-11-23 14:24:00,
2013-11-23 09:29:00,39.4,27.5,29.93,West,277,0.0,2.0,62,0.00,,,0.00,meteohub,2013-11-23 14:29:00,
2013-11-23 09:34:00,39.4,27.5,29.92,SSW,212,0.0,2.0,62,0.00,,,0.00,meteohub,2013-11-23 14:34:00,
2013-11-23 09:39:00,39.6,27.1,29.92,WSW,238,0.0,2.0,61,0.00,,,0.00,meteohub,2013-11-23 14:39:00,
2013-11-23 09:44:00,39.7,27.0,29.91,West,263,0.0,2.0,60,0.00,,,0.00,meteohub,2013-11-23 14:44:00,
2013-11-23 09:49:00,39.9,26.8,29.91,North,8,0.0,2.0,59,0.00,,,0.00,meteohub,2013-11-23 14:49:00,
2013-11-23 09:54:00,40.3,27.5,29.91,SSW,212,0.0,2.0,60,0.00,,,0.00,meteohub,2013-11-23 14:54:00,
2013-11-23 09:59:00,40.5,26.8,29.91,NNE,15,2.0,2.0,58,0.00,,,0.00,meteohub,2013-11-23 14:59:00,
2013-11-23 10:04:00,40.6,27.0,29.91,WSW,245,0.0,3.0,58,0.00,,,0.00,meteohub,2013-11-23 15:04:00,
2013-11-23 10:09:00,40.8,26.4,29.91,West,280,0.0,3.0,56,0.00,,,0.00,meteohub,2013-11-23 15:09:00,
2013-11-23 10:14:00,40.8,25.9,29.91,West,268,0.0,3.0,55,0.00,,,0.00,meteohub,2013-11-23 15:14:00,
2013-11-23 10:19:00,40.8,25.9,29.91,SW,236,1.0,2.0,55,0.00,,,0.00,meteohub,2013-11-23 15:19:00,
2013-11-23 10:24:00,40.8,26.4,29.91,SW,233,0.0,2.0,56,0.00,,,0.00,meteohub,2013-11-23 15:24:00,
2013-11-23 10:29:00,40.8,26.4,29.91,NE,41,0.0,3.0,56,0.00,,,0.00,meteohub,2013-11-23 15:29:00,
2013-11-23 10:34:00,41.0,26.1,29.91,WNW,285,0.0,3.0,55,0.00,,,0.00,meteohub,2013-11-23 15:34:00,
2013-11-23 10:39:00,40.8,26.4,29.90,WSW,249,1.0,3.0,56,0.00,,,0.00,meteohub,2013-11-23 15:39:00,
2013-11-23 10:44:00,41.0,27.0,29.90,West,266,0.0,2.0,57,0.00,,,0.00,meteohub,2013-11-23 15:44:00,
2013-11-23 10:49:00,41.2,25.3,29.90,WSW,249,0.0,2.0,53,0.00,,,0.00,meteohub,2013-11-23 15:49:00,
2013-11-23 10:54:00,41.0,25.2,29.89,SW,233,0.0,2.0,53,0.00,,,0.00,meteohub,2013-11-23 15:54:00,
2013-11-23 10:59:00,41.2,25.3,29.89,WSW,248,0.0,2.0,53,0.00,,,0.00,meteohub,2013-11-23 15:59:00,
2013-11-23 11:04:00,41.4,25.0,29.89,SW,235,0.0,2.0,52,0.00,,,0.00,meteohub,2013-11-23 16:04:00,
2013-11-23 11:09:00,41.5,24.3,29.88,WNW,301,0.0,4.0,50,0.00,,,0.00,meteohub,2013-11-23 16:09:00,
2013-11-23 11:14:00,41.7,24.4,29.88,South,179,1.0,4.0,50,0.00,,,0.00,meteohub,2013-11-23 16:14:00,
2013-11-23 11:19:00,41.7,25.0,29.88,WNW,290,0.0,4.0,51,0.00,,,0.00,meteohub,2013-11-23 16:19:00,
2013-11-23 11:24:00,41.5,23.7,29.87,NE,37,0.0,4.0,49,0.00,,,0.00,meteohub,2013-11-23 16:24:00,
2013-11-23 11:29:00,41.5,23.7,29.87,North,3,0.0,4.0,49,0.00,,,0.00,meteohub,2013-11-23 16:29:00,
2013-11-23 11:34:00,41.4,23.2,29.87,SW,228,0.0,4.0,48,0.00,,,0.00,meteohub,2013-11-23 16:34:00,
2013-11-23 11:39:00,41.4,23.7,29.87,ESE,120,0.0,1.0,49,0.00,,,0.00,meteohub,2013-11-23 16:39:00,
2013-11-23 11:44:00,41.7,24.4,29.87,WSW,238,0.0,2.0,50,0.00,,,0.00,meteohub,2013-11-23 16:44:00,
2013-11-23 11:49:00,42.1,24.3,29.86,West,263,0.0,2.0,49,0.00,,,0.00,meteohub,2013-11-23 16:49:00,
2013-11-23 11:54:00,42.1,23.7,29.86,WSW,238,0.0,2.0,48,0.00,,,0.00,meteohub,2013-11-23 16:54:00,
2013-11-23 11:59:00,42.1,23.4,29.86,North,351,0.0,2.0,47,0.00,,,0.00,meteohub,2013-11-23 16:59:00,
2013-11-23 12:04:00,42.1,23.4,29.86,WSW,258,0.0,2.0,47,0.00,,,0.00,meteohub,2013-11-23 17:04:00,
2013-11-23 12:09:00,42.1,23.7,29.86,SW,228,2.0,2.0,48,0.00,,,0.00,meteohub,2013-11-23 17:09:00,
2013-11-23 12:14:00,42.1,23.4,29.85,WSW,239,0.0,2.0,47,0.00,,,0.00,meteohub,2013-11-23 17:14:00,
2013-11-23 12:19:00,41.9,23.7,29.85,SW,235,0.0,2.0,48,0.00,,,0.00,meteohub,2013-11-23 17:19:00,
2013-11-23 12:24:00,41.9,23.7,29.85,WSW,250,0.0,3.0,48,0.00,,,0.00,meteohub,2013-11-23 17:24:00,
2013-11-23 12:29:00,41.7,23.5,29.85,SW,224,0.0,3.0,48,0.00,,,0.00,meteohub,2013-11-23 17:29:00,
2013-11-23 12:34:00,42.1,23.7,29.85,West,276,0.0,3.0,48,0.00,,,0.00,meteohub,2013-11-23 17:34:00,
2013-11-23 12:39:00,41.9,23.2,29.84,SSW,210,1.0,2.0,47,0.00,,,0.00,meteohub,2013-11-23 17:39:00,
2013-11-23 12:44:00,41.7,23.0,29.84,NNE,13,0.0,3.0,47,0.00,,,0.00,meteohub,2013-11-23 17:44:00,
2013-11-23 12:49:00,41.5,22.3,29.84,WNW,302,1.0,3.0,46,0.00,,,0.00,meteohub,2013-11-23 17:49:00,
2013-11-23 12:54:00,41.4,22.6,29.84,WNW,287,0.0,5.0,47,0.00,,,0.00,meteohub,2013-11-23 17:54:00,
2013-11-23 12:59:00,41.4,22.6,29.84,SW,235,0.0,5.0,47,0.00,,,0.00,meteohub,2013-11-23 17:59:00,
2013-11-23 13:04:00,41.2,21.9,29.84,WNW,298,0.0,5.0,46,0.00,,,0.00,meteohub,2013-11-23 18:04:00,
2013-11-23 13:09:00,41.2,22.5,29.84,WSW,239,0.0,2.0,47,0.00,,,0.00,meteohub,2013-11-23 18:09:00,
2013-11-23 13:14:00,41.2,21.4,29.84,NE,37,0.0,2.0,45,0.00,,,0.00,meteohub,2013-11-23 18:14:00,
2013-11-23 13:19:00,41.2,21.4,29.84,WNW,300,1.0,2.0,45,0.00,,,0.00,meteohub,2013-11-23 18:19:00,
2013-11-23 13:24:00,40.8,20.7,29.84,SSW,194,0.0,2.0,44,0.00,,,0.00,meteohub,2013-11-23 18:24:00,
2013-11-23 13:29:00,40.8,21.2,29.84,NNE,29,0.0,2.0,45,0.00,,,0.00,meteohub,2013-11-23 18:29:00,
2013-11-23 13:34:00,40.6,21.0,29.84,SW,223,0.0,2.0,45,0.00,,,0.00,meteohub,2013-11-23 18:34:00,
2013-11-23 13:39:00,40.6,21.0,29.83,West,260,0.0,1.0,45,0.00,,,0.00,meteohub,2013-11-23 18:39:00,
2013-11-23 13:44:00,40.5,21.4,29.83,SW,222,0.0,2.0,46,0.00,,,0.00,meteohub,2013-11-23 18:44:00,
2013-11-23 13:49:00,40.5,22.3,29.84,NNE,25,0.0,2.0,48,0.00,,,0.00,meteohub,2013-11-23 18:49:00,
2013-11-23 13:54:00,40.5,23.7,29.83,North,11,0.0,2.0,51,0.00,,,0.00,meteohub,2013-11-23 18:54:00,
2013-11-23 13:59:00,40.3,24.1,29.84,WNW,295,0.0,2.0,52,0.00,,,0.00,meteohub,2013-11-23 18:59:00,
2013-11-23 14:04:00,40.1,23.0,29.84,NE,46,0.0,2.0,50,0.00,,,0.00,meteohub,2013-11-23 19:04:00,
2013-11-23 14:09:00,39.7,21.7,29.83,WSW,240,0.0,2.0,48,0.00,,,0.00,meteohub,2013-11-23 19:09:00,
2013-11-23 14:15:00,39.4,21.7,29.83,WSW,256,0.0,1.0,49,0.00,,,0.00,meteohub,2013-11-23 19:15:00,
2013-11-23 14:20:00,39.0,22.5,29.83,NNE,15,0.0,2.0,51,0.00,,,0.00,meteohub,2013-11-23 19:20:00,
2013-11-23 14:25:00,38.8,21.7,29.83,NNE,12,0.0,2.0,50,0.00,,,0.00,meteohub,2013-11-23 19:25:00,
2013-11-23 14:30:00,38.7,21.2,29.83,NNE,29,0.0,2.0,49,0.00,,,0.00,meteohub,2013-11-23 19:30:00,
2013-11-23 14:35:00,38.5,21.4,29.83,NW,309,0.0,4.0,50,0.00,,,0.00,meteohub,2013-11-23 19:35:00,
2013-11-23 14:40:00,38.1,20.7,29.83,West,278,0.0,4.0,49,0.00,,,0.00,meteohub,2013-11-23 19:40:00,
2013-11-23 14:45:00,37.9,21.0,29.83,NNE,13,0.0,4.0,50,0.00,,,0.00,meteohub,2013-11-23 19:45:00,
2013-11-23 14:50:00,37.8,20.8,29.83,North,359,0.0,3.0,50,0.00,,,0.00,meteohub,2013-11-23 19:50:00,
2013-11-23 14:55:00,37.8,20.3,29.83,SW,229,0.0,3.0,49,0.00,,,0.00,meteohub,2013-11-23 19:55:00,
2013-11-23 15:00:00,37.6,20.7,29.83,North,352,0.0,3.0,50,0.00,,,0.00,meteohub,2013-11-23 20:00:00,
2013-11-23 15:05:00,37.6,21.0,29.83,ENE,58,0.0,3.0,51,0.00,,,0.00,meteohub,2013-11-23 20:05:00,
2013-11-23 15:10:00,37.4,20.8,29.83,North,355,1.0,2.0,51,0.00,,,0.00,meteohub,2013-11-23 20:10:00,
2013-11-23 15:15:00,37.2,20.3,29.83,WSW,238,0.0,2.0,50,0.00,,,0.00,meteohub,2013-11-23 20:15:00,
2013-11-23 15:20:00,36.9,20.5,29.83,NNE,13,2.0,2.0,51,0.00,,,0.00,meteohub,2013-11-23 20:20:00,
2013-11-23 15:25:00,36.7,20.7,29.83,SW,235,0.0,3.0,52,0.00,,,0.00,meteohub,2013-11-23 20:25:00,
2013-11-23 15:30:00,36.7,20.7,29.83,North,9,0.0,3.0,52,0.00,,,0.00,meteohub,2013-11-23 20:30:00,
2013-11-23 15:35:00,36.3,21.2,29.82,WSW,252,0.0,2.0,54,0.00,,,0.00,meteohub,2013-11-23 20:35:00,
2013-11-23 15:40:00,36.3,20.8,29.82,NNW,340,0.0,2.0,53,0.00,,,0.00,meteohub,2013-11-23 20:40:00,
2013-11-23 15:45:00,36.1,20.7,29.82,NW,310,0.0,1.0,53,0.00,,,0.00,meteohub,2013-11-23 20:45:00,
2013-11-23 15:50:00,36.0,21.0,29.82,NNE,16,0.0,1.0,54,0.00,,,0.00,meteohub,2013-11-23 20:50:00,
2013-11-23 15:55:00,35.8,20.8,29.82,North,7,1.0,3.0,54,0.00,,,0.00,meteohub,2013-11-23 20:55:00,
2013-11-23 16:00:00,35.6,20.7,29.82,North,7,0.0,3.0,54,0.00,,,0.00,meteohub,2013-11-23 21:00:00,
2013-11-23 16:05:00,35.4,20.8,29.82,WSW,242,0.0,3.0,55,0.00,,,0.00,meteohub,2013-11-23 21:05:00,
2013-11-23 16:10:00,35.2,20.7,29.82,North,11,0.0,1.0,55,0.00,,,0.00,meteohub,2013-11-23 21:10:00,
2013-11-23 16:15:00,35.1,21.0,29.83,NNE,15,2.0,2.0,56,0.00,,,0.00,meteohub,2013-11-23 21:15:00,
2013-11-23 16:20:00,35.1,21.0,29.82,WNW,300,0.0,2.0,56,0.00,,,0.00,meteohub,2013-11-23 21:20:00,
2013-11-23 16:25:00,34.9,20.3,29.82,NE,49,0.0,2.0,55,0.00,,,0.00,meteohub,2013-11-23 21:25:00,
2013-11-23 16:30:00,34.9,20.8,29.82,North,11,0.0,2.0,56,0.00,,,0.00,meteohub,2013-11-23 21:30:00,
2013-11-23 16:35:00,34.7,20.7,29.82,South,191,0.0,2.0,56,0.00,,,0.00,meteohub,2013-11-23 21:35:00,
2013-11-23 16:40:00,34.5,20.5,29.82,South,175,0.0,1.0,56,0.00,,,0.00,meteohub,2013-11-23 21:40:00,
2013-11-23 16:45:00,34.5,20.5,29.82,NNW,333,0.0,1.0,56,0.00,,,0.00,meteohub,2013-11-23 21:45:00,
2013-11-23 16:50:00,34.3,20.3,29.82,NNW,336,0.0,1.0,56,0.00,,,0.00,meteohub,2013-11-23 21:50:00,
2013-11-23 16:55:00,34.3,20.3,29.82,NNE,20,0.0,1.0,56,0.00,,,0.00,meteohub,2013-11-23 21:55:00,
2013-11-23 17:00:00,34.2,20.1,29.82,NNE,20,0.0,1.0,56,0.00,,,0.00,meteohub,2013-11-23 22:00:00,
2013-11-23 17:05:00,34.0,19.9,29.81,NNE,20,0.0,1.0,56,0.00,,,0.00,meteohub,2013-11-23 22:05:00,
2013-11-23 17:10:00,34.0,19.9,29.81,NNE,20,0.0,1.0,56,0.00,,,0.00,meteohub,2013-11-23 22:10:00,
2013-11-23 17:15:00,33.8,19.8,29.81,NNE,20,0.0,1.0,56,0.00,,,0.00,meteohub,2013-11-23 22:15:00,
2013-11-23 17:20:00,33.6,19.6,29.81,North,10,0.0,1.0,56,0.00,,,0.00,meteohub,2013-11-23 22:20:00,
2013-11-23 17:25:00,33.6,19.6,29.81,North,11,0.0,1.0,56,0.00,,,0.00,meteohub,2013-11-23 22:25:00,
2013-11-23 17:30:00,33.6,19.9,29.81,North,11,0.0,1.0,57,0.00,,,0.00,meteohub,2013-11-23 22:30:00,
2013-11-23 17:35:00,33.4,19.8,29.81,North,11,0.0,1.0,57,0.00,,,0.00,meteohub,2013-11-23 22:35:00,
2013-11-23 17:40:00,33.3,20.1,29.81,North,11,0.0,1.0,58,0.00,,,0.00,meteohub,2013-11-23 22:40:00,
2013-11-23 17:45:00,33.3,20.5,29.81,North,11,0.0,0.0,59,0.00,,,0.00,meteohub,2013-11-23 22:45:00,
2013-11-23 17:50:00,33.1,20.3,29.81,North,11,0.0,0.0,59,0.00,,,0.00,meteohub,2013-11-23 22:50:00,
2013-11-23 17:55:00,32.9,20.1,29.80,North,11,0.0,0.0,59,0.00,,,0.00,meteohub,2013-11-23 22:55:00,
2013-11-23 18:00:00,32.7,19.9,29.80,North,11,0.0,0.0,59,0.00,,,0.00,meteohub,2013-11-23 23:00:00,
2013-11-23 18:05:00,32.7,20.3,29.80,NNE,12,0.0,0.0,60,0.00,,,0.00,meteohub,2013-11-23 23:05:00,
2013-11-23 18:09:00,32.7,20.3,29.80,North,11,0.0,0.0,60,0.00,,,0.00,meteohub,2013-11-23 23:09:00,
2013-11-23 18:14:00,32.7,20.3,29.79,NNE,12,0.0,0.0,60,0.00,,,0.00,meteohub,2013-11-23 23:14:00,
2013-11-23 18:19:00,32.5,20.1,29.79,North,11,0.0,0.0,60,0.00,,,0.00,meteohub,2013-11-23 23:19:00,
2013-11-23 18:24:00,32.5,20.7,29.79,North,11,0.0,0.0,61,0.00,,,0.00,meteohub,2013-11-23 23:24:00,
2013-11-23 18:29:00,32.4,20.5,29.79,North,11,0.0,0.0,61,0.00,,,0.00,meteohub,2013-11-23 23:29:00,
2013-11-23 18:34:00,32.4,20.5,29.79,North,11,0.0,0.0,61,0.00,,,0.00,meteohub,2013-11-23 23:34:00,
2013-11-23 18:39:00,32.2,20.3,29.79,North,11,0.0,0.0,61,0.00,,,0.00,meteohub,2013-11-23 23:39:00,
2013-11-23 18:44:00,32.2,20.3,29.78,NNE,19,0.0,0.0,61,0.00,,,0.00,meteohub,2013-11-23 23:44:00,
2013-11-23 18:50:00,32.2,20.3,29.78,NNE,20,0.0,1.0,61,0.00,,,0.00,meteohub,2013-11-23 23:50:00,
2013-11-23 18:55:00,32.2,20.7,29.78,SW,231,0.0,1.0,62,0.00,,,0.00,meteohub,2013-11-23 23:55:00,
2013-11-23 19:00:00,32.0,20.1,29.78,SW,231,0.0,1.0,61,0.00,,,0.00,meteohub,2013-11-24 00:00:00,
2013-11-23 19:05:00,32.2,20.3,29.78,SW,231,0.0,0.0,61,0.00,,,0.00,meteohub,2013-11-24 00:05:00,
2013-11-23 19:10:00,32.2,20.3,29.78,SW,215,0.0,1.0,61,0.00,,,0.00,meteohub,2013-11-24 00:10:00,
2013-11-23 19:15:00,32.0,20.5,29.78,SSW,193,0.0,1.0,62,0.00,,,0.00,meteohub,2013-11-24 00:15:00,
2013-11-23 19:20:00,32.2,20.7,29.78,NNE,16,1.0,1.0,62,0.00,,,0.00,meteohub,2013-11-24 00:20:00,
2013-11-23 19:25:00,32.5,21.0,29.79,North,11,0.0,1.0,62,0.00,,,0.00,meteohub,2013-11-24 00:25:00,
2013-11-23 19:30:00,32.9,21.4,29.79,West,268,0.0,2.0,62,0.00,,,0.00,meteohub,2013-11-24 00:30:00,
2013-11-23 19:35:00,33.3,22.5,29.79,North,0,1.0,5.0,64,0.00,,,0.00,meteohub,2013-11-24 00:35:00,
2013-11-23 19:40:00,33.3,23.5,29.79,North,5,0.0,5.0,67,0.00,,,0.00,meteohub,2013-11-24 00:40:00,
2013-11-23 19:45:00,33.1,23.7,29.79,SW,226,0.0,5.0,68,0.00,,,0.00,meteohub,2013-11-24 00:45:00,
2013-11-23 19:50:00,32.9,23.9,29.79,North,11,0.0,2.0,69,0.00,,,0.00,meteohub,2013-11-24 00:50:00,
2013-11-23 19:55:00,32.7,24.1,29.79,North,359,0.0,1.0,70,0.00,,,0.00,meteohub,2013-11-24 00:55:00,
2013-11-23 20:00:00,32.7,24.4,29.80,West,265,0.0,1.0,71,0.00,,,0.00,meteohub,2013-11-24 01:00:00,
2013-11-23 20:05:00,32.7,24.4,29.80,WNW,299,0.0,2.0,71,0.00,,,0.00,meteohub,2013-11-24 01:05:00,
2013-11-23 20:10:00,32.7,24.6,29.80,SW,225,0.0,2.0,72,0.00,,,0.00,meteohub,2013-11-24 01:10:00,
2013-11-23 20:15:00,32.5,24.4,29.79,SW,225,0.0,2.0,72,0.00,,,0.00,meteohub,2013-11-24 01:15:00,
2013-11-23 20:20:00,32.4,24.6,29.79,North,11,0.0,1.0,73,0.00,,,0.00,meteohub,2013-11-24 01:20:00,
2013-11-23 20:25:00,32.2,24.4,29.79,North,11,0.0,1.0,73,0.00,,,0.00,meteohub,2013-11-24 01:25:00,
2013-11-23 20:30:00,32.0,24.3,29.79,North,11,0.0,1.0,73,0.00,,,0.00,meteohub,2013-11-24 01:30:00,
2013-11-23 20:35:00,31.8,24.4,29.79,SSW,212,0.0,1.0,74,0.00,,,0.00,meteohub,2013-11-24 01:35:00,
2013-11-23 20:40:00,31.8,24.8,29.79,SSW,212,0.0,1.0,75,0.00,,,0.00,meteohub,2013-11-24 01:40:00,
2013-11-23 20:45:00,31.6,24.6,29.79,SSW,212,0.0,1.0,75,0.00,,,0.00,meteohub,2013-11-24 01:45:00,
2013-11-23 20:50:00,31.5,24.4,29.79,SSW,212,0.0,0.0,75,0.00,,,0.00,meteohub,2013-11-24 01:50:00,
2013-11-23 20:55:00,31.3,24.6,29.79,SSW,212,0.0,1.0,76,0.00,,,0.00,meteohub,2013-11-24 01:55:00,
2013-11-23 21:00:00,30.9,24.3,29.79,SW,217,0.0,1.0,76,0.00,,,0.00,meteohub,2013-11-24 02:00:00,
2013-11-23 21:05:00,30.7,24.1,29.79,SW,218,0.0,0.0,76,0.00,,,0.00,meteohub,2013-11-24 02:05:00,
2013-11-23 21:10:00,30.7,23.7,29.79,SW,218,0.0,1.0,75,0.00,,,0.00,meteohub,2013-11-24 02:10:00,
2013-11-23 21:15:00,30.9,23.0,29.79,NNW,346,1.0,1.0,72,0.00,,,0.00,meteohub,2013-11-24 02:15:00,
2013-11-23 21:20:00,30.9,22.6,29.79,NNW,342,0.0,1.0,71,0.00,,,0.00,meteohub,2013-11-24 02:20:00,
2013-11-23 21:26:00,30.9,21.6,29.79,NNW,341,0.0,1.0,68,0.00,,,0.00,meteohub,2013-11-24 02:26:00,
2013-11-23 21:31:00,30.9,21.6,29.79,SSW,195,0.0,1.0,68,0.00,,,0.00,meteohub,2013-11-24 02:31:00,
2013-11-23 21:36:00,30.9,21.9,29.79,SSW,195,0.0,1.0,69,0.00,,,0.00,meteohub,2013-11-24 02:36:00,
2013-11-23 21:41:00,30.9,22.3,29.79,ENE,58,0.0,1.0,70,0.00,,,0.00,meteohub,2013-11-24 02:41:00,
2013-11-23 21:46:00,30.7,22.5,29.79,NE,54,0.0,1.0,71,0.00,,,0.00,meteohub,2013-11-24 02:46:00,
2013-11-23 21:51:00,30.7,22.8,29.79,NE,51,0.0,1.0,72,0.00,,,0.00,meteohub,2013-11-24 02:51:00,
2013-11-23 21:56:00,30.6,23.0,29.79,North,354,0.0,1.0,73,0.00,,,0.00,meteohub,2013-11-24 02:56:00,
2013-11-23 22:01:00,30.6,22.6,29.79,ENE,61,0.0,1.0,72,0.00,,,0.00,meteohub,2013-11-24 03:01:00,
2013-11-23 22:06:00,30.4,22.1,29.79,North,357,0.0,2.0,71,0.00,,,0.00,meteohub,2013-11-24 03:06:00,
2013-11-23 22:11:00,30.4,21.7,29.79,NNE,23,1.0,2.0,70,0.00,,,0.00,meteohub,2013-11-24 03:11:00,
2013-11-23 22:16:00,30.2,20.8,29.79,NNE,23,0.0,2.0,68,0.00,,,0.00,meteohub,2013-11-24 03:16:00,
2013-11-23 22:21:00,30.2,19.9,29.79,WSW,239,0.0,2.0,65,0.00,,,0.00,meteohub,2013-11-24 03:21:00,
2013-11-23 22:26:00,30.0,18.1,29.79,WNW,296,0.0,2.0,61,0.00,,,0.00,meteohub,2013-11-24 03:26:00,
2013-11-23 22:31:00,30.0,16.7,29.79,North,1,0.0,2.0,57,0.00,,,0.00,meteohub,2013-11-24 03:31:00,
2013-11-23 22:36:00,30.0,14.9,29.79,East,81,0.0,2.0,53,0.00,,,0.00,meteohub,2013-11-24 03:36:00,
2013-11-23 22:41:00,30.2,13.3,29.80,NNW,340,1.0,3.0,49,0.00,,,0.00,meteohub,2013-11-24 03:41:00,
2013-11-23 22:46:00,30.2,11.5,29.79,West,271,0.0,4.0,45,0.00,,,0.00,meteohub,2013-11-24 03:46:00,
2013-11-23 22:51:00,30.4,10.6,29.79,WSW,237,0.0,4.0,43,0.00,,,0.00,meteohub,2013-11-24 03:51:00,
2013-11-23 22:56:00,30.4,10.6,29.80,NNE,16,0.0,1.0,43,0.00,,,0.00,meteohub,2013-11-24 03:56:00,
2013-11-23 23:01:00,30.2,10.4,29.79,NE,51,0.0,1.0,43,0.00,,,0.00,meteohub,2013-11-24 04:01:00,
2013-11-23 23:06:00,30.0,11.3,29.79,NNE,18,0.0,1.0,45,0.00,,,0.00,meteohub,2013-11-24 04:06:00,
2013-11-23 23:11:00,29.8,11.1,29.80,NNE,18,1.0,1.0,45,0.00,,,0.00,meteohub,2013-11-24 04:11:00,
2013-11-23 23:16:00,29.7,9.3,29.79,NNE,18,0.0,1.0,42,0.00,,,0.00,meteohub,2013-11-24 04:16:00,
2013-11-23 23:21:00,29.7,9.3,29.80,North,3,0.0,3.0,42,0.00,,,0.00,meteohub,2013-11-24 04:21:00,
2013-11-23 23:26:00,29.7,9.3,29.79,SW,226,1.0,3.0,42,0.00,,,0.00,meteohub,2013-11-24 04:26:00,
2013-11-23 23:31:00,29.5,9.1,29.79,WSW,253,0.0,6.0,42,0.00,,,0.00,meteohub,2013-11-24 04:31:00,
2013-11-23 23:36:00,29.5,9.7,29.79,South,188,0.0,6.0,43,0.00,,,0.00,meteohub,2013-11-24 04:36:00,
2013-11-23 23:41:00,29.1,9.3,29.80,NE,39,0.0,6.0,43,0.00,,,0.00,meteohub,2013-11-24 04:41:00,
2013-11-23 23:46:00,29.1,9.3,29.79,WNW,300,0.0,3.0,43,0.00,,,0.00,meteohub,2013-11-24 04:46:00,
2013-11-23 23:51:00,29.1,9.3,29.79,NNW,328,0.0,3.0,43,0.00,,,0.00,meteohub,2013-11-24 04:51:00,
2013-11-23 23:56:00,28.9,9.7,29.79,NNE,20,1.0,3.0,44,0.00,,,0.00,meteohub,2013-11-24 04:56:00,